EW3808 Weather Reports


time (UTC)temp
F
wind
direction
speed
knots
gust
knots
rain 1hr
in
rain 24hr
in
rain mn
in
humidity
%
barometer
mb
20260906232954 64 121 3.5 15.6 0.00 0.00 0.00 43 1019.7
20260906231943 65 124 1.7 15.6 0.00 0.00 0.00 43 1020.1
20260906230929 66 179 0.9 7.8 0.00 0.00 0.00 42 1020.4
20260906225930 66 178 0.0 0.0 0.00 0.00 0.00 41 1020.3
20260906224929 66 171 0.0 0.0 0.00 0.00 0.00 41 1020.5
20260906222840 67 211 0.0 0.0 0.00 0.00 0.00 43 1020.7
20260906221824 67 184 0.9 7.8 0.00 0.00 0.00 39 1020.5
20260906220752 67 186 0.0 5.2 0.00 0.00 0.00 37 1020.5
20260906215811 67 227 0.0 0.0 0.00 0.00 0.00 37 1020.5
20260906214815 67 163 1.7 8.7 0.00 0.00 0.00 37 1020.5
20260906213826 68 165 0.0 2.6 0.00 0.00 0.00 38 1020.9
20260906212809 69 197 0.0 0.0 0.00 0.00 0.00 36 1020.6
20260906211800 69 198 0.0 0.9 0.00 0.00 0.00 38 1020.7
20260906210813 69 272 1.7 10.4 0.00 0.00 0.00 35 1020.7
20260906205741 68 274 3.5 11.3 0.00 0.00 0.00 34 1020.7
20260906204748 69 130 0.9 11.3 0.00 0.00 0.00 33 1020.8
20260906203714 68 150 0.9 9.6 0.00 0.00 0.00 36 1021.0
20260906202655 69 174 0.9 0.0 0.00 0.00 0.00 33 1021.1
20260906201640 68 215 1.7 0.0 0.00 0.00 0.00 36 1020.9
20260906200656 67 120 2.6 17.4 0.00 0.00 0.00 35 1021.2
20260906195717 68 154 0.9 13.9 0.00 0.00 0.00 34 1021.3
20260906194718 69 220 0.9 8.7 0.00 0.00 0.00 33 1021.4
20260906193718 68 154 1.7 0.0 0.00 0.00 0.00 37 1021.7
20260906192708 67 168 2.6 21.7 0.00 0.00 0.00 33 1021.6
20260906191649 68 275 2.6 13.0 0.00 0.00 0.00 31 1021.7
20260906190624 68 232 1.7 13.0 0.00 0.00 0.00 34 1021.8
20260906185628 67 296 1.7 11.3 0.00 0.00 0.00 34 1021.8
20260906184631 67 165 0.0 0.0 0.00 0.00 0.00 33 1022.2
20260906183615 68 165 1.7 9.6 0.00 0.00 0.00 32 1021.8
20260906182634 67 137 0.0 7.8 0.00 0.00 0.00 34 1022.1
20260906181610 67 173 3.5 13.0 0.00 0.00 0.00 32 1022.4
20260906180603 67 84 1.7 11.3 0.00 0.00 0.00 31 1022.4
20260906175621 67 176 0.9 0.0 0.00 0.00 0.00 31 1022.5
20260906174624 66 141 0.0 7.0 0.00 0.00 0.00 31 1022.2
20260906173612 66 191 0.0 0.0 0.00 0.00 0.00 34 1022.5
20260906172546 66 127 2.6 0.0 0.00 0.00 0.00 32 1022.8
20260906165329 67 162 2.6 13.0 0.00 0.00 0.00 34 1022.6
20260906163217 66 120 1.7 7.8 0.00 0.00 0.00 39 1022.8
20260906162202 65 231 1.7 11.3 0.00 0.00 0.00 38 1023.0
20260906161143 65 175 3.5 11.3 0.00 0.00 0.00 37 1023.0
20260906160128 66 200 1.7 7.8 0.00 0.00 0.00 38 1023.1
20260906155142 65 231 0.9 7.0 0.00 0.00 0.00 37 1023.1
20260906154155 65 107 1.7 7.0 0.00 0.00 0.00 40 1023.2
20260906153128 64 165 0.9 7.0 0.00 0.00 0.00 39 1023.4
20260906152132 63 123 0.9 6.1 0.00 0.00 0.00 43 1023.5
20260906151100 61 95 1.7 6.1 0.00 0.00 0.00 46 1023.6
20260906150054 58 139 0.0 5.2 0.00 0.00 0.00 49 1023.5
20260906140527 46 164 4.3 7.8 0.00 0.00 0.00 67 1023.6
20260906135511 46 158 5.2 7.8 0.00 0.00 0.00 67 1023.5
20260906134513 46 145 4.3 7.8 0.00 0.00 0.00 66 1023.5
20260906132409 45 153 5.2 7.8 0.00 0.00 0.00 65 1023.2
20260906131356 45 136 4.3 7.8 0.00 0.00 0.00 66 1023.2
20260906130417 45 139 4.3 7.0 0.00 0.00 0.00 66 1023.1
20260906125352 45 150 2.6 7.0 0.00 0.00 0.00 65 1023.2
20260906124401 45 138 3.5 7.0 0.00 0.00 0.00 65 1023.1
20260906123344 46 130 2.6 0.0 0.00 0.00 0.00 65 1023.2
20260906121258 46 144 3.5 7.0 0.00 0.00 0.00 64 1023.3
20260906115204 46 139 2.6 0.0 0.00 0.00 0.00 63 1023.2
20260906111953 47 163 2.6 6.1 0.00 0.00 0.00 63 1023.4
20260906111004 47 185 0.9 4.3 0.00 0.00 0.00 62 1023.5
20260906105948 47 169 1.7 7.8 0.00 0.00 0.00 62 1023.4
20260906104947 46 165 0.9 0.0 0.00 0.00 0.00 63 1023.4
20260906103940 47 137 0.0 0.0 0.00 0.00 0.00 61 1023.3
20260906102932 47 162 0.9 7.0 0.00 0.00 0.00 62 1023.4
20260906101921 47 149 0.9 0.0 0.00 0.00 0.00 59 1023.4
20260906100919 47 159 2.6 6.1 0.00 0.00 0.00 59 1023.3
20260906095918 48 157 2.6 7.0 0.00 0.00 0.00 58 1023.3
20260906094921 48 140 0.0 7.0 0.00 0.00 0.00 57 1023.2
20260906092725 48 151 2.6 0.0 0.00 0.00 0.00 57 1023.2
20260906091748 48 126 2.6 7.0 0.00 0.00 0.00 57 1023.3
20260906090721 48 139 0.9 7.0 0.00 0.00 0.00 57 1023.2
20260906085737 48 155 0.0 0.0 0.00 0.00 0.00 56 1023.2
20260906084723 49 149 2.6 0.0 0.00 0.00 0.00 56 1023.2
20260906083718 49 161 3.5 7.8 0.00 0.00 0.00 55 1023.1
20260906082729 49 175 1.7 7.8 0.00 0.00 0.00 55 1023.1
20260906081732 49 140 0.9 7.8 0.00 0.00 0.00 55 1023.2
20260906080729 49 167 0.0 0.0 0.00 0.00 0.00 54 1023.1
20260906075740 48 186 0.0 0.0 0.00 0.00 0.00 59 1023.2
20260906074743 48 152 0.0 0.0 0.00 0.00 0.00 56 1023.1
20260906071459 49 153 0.0 4.3 0.00 0.00 0.00 55 1023.2
20260906070430 49 154 0.9 8.7 0.00 0.00 0.00 54 1023.1
20260906065409 49 126 3.5 7.8 0.00 0.00 0.00 53 1023.0
20260906063257 49 150 0.9 0.0 0.00 0.00 0.00 53 1023.0
20260906062258 50 139 1.7 0.0 0.00 0.00 0.00 53 1022.8
20260906060223 51 160 3.5 8.7 0.00 0.00 0.00 51 1022.7
20260906055203 50 150 4.3 8.7 0.00 0.00 0.00 51 1022.7
20260906054156 50 142 0.9 8.7 0.00 0.00 0.00 51 1022.7
20260906053216 50 137 2.6 7.0 0.00 0.00 0.00 51 1022.7
20260906052208 51 154 2.6 0.0 0.00 0.00 0.00 51 1022.7
20260906051207 51 133 0.0 7.0 0.00 0.00 0.00 51 1022.8
20260906045038 51 118 3.5 7.8 0.00 0.00 0.00 50 1022.8
20260906044057 52 138 2.6 7.8 0.00 0.00 0.00 49 1022.9
20260906043119 52 149 2.6 7.0 0.00 0.00 0.00 49 1022.9
20260906042124 53 140 0.0 6.1 0.00 0.00 0.00 47 1022.8
20260906041133 53 153 2.6 7.0 0.00 0.00 0.00 46 1022.7
20260906040100 53 134 0.0 7.0 0.00 0.00 0.00 46 1022.7
20260906034003 53 125 0.0 7.0 0.00 0.00 0.00 45 1022.5
20260906033014 54 133 0.9 0.0 0.00 0.00 0.00 46 1022.3
20260906032005 54 142 1.7 6.1 0.00 0.00 0.00 45 1022.1
20260906031021 54 138 0.0 0.0 0.00 0.00 0.00 45 1022.0
20260906024916 56 143 0.0 0.0 0.00 0.00 0.00 42 1021.8
20260906023857 57 154 0.0 0.0 0.00 0.00 0.00 42 1021.5
20260906022914 57 152 0.0 0.0 0.00 0.00 0.00 41 1021.3
20260906020809 60 147 0.0 0.0 0.00 0.00 0.00 38 1021.0
20260906015831 61 155 0.0 0.0 0.00 0.00 0.00 37 1021.0
20260906014805 62 159 0.0 0.0 0.00 0.00 0.00 35 1021.1
20260906013753 63 161 0.0 0.0 0.00 0.00 0.00 33 1021.2
20260906012749 64 159 0.0 0.0 0.00 0.00 0.00 32 1021.1
20260906011721 65 157 0.0 0.0 0.00 0.00 0.00 30 1021.2
20260906010648 67 155 0.0 0.0 0.00 0.00 0.00 26 1021.1
20260906005620 67 148 0.0 0.0 0.00 0.00 0.00 26 1021.1
20260906004558 68 251 0.0 4.3 0.00 0.00 0.00 25 1021.1
20260906003559 69 261 0.0 1.7 0.00 0.00 0.00 22 1021.0
20260906002611 69 259 1.7 11.3 0.00 0.00 0.00 22 1021.0
20260906001603 71 190 0.0 5.2 0.00 0.00 0.00 22 1020.9
20260906000559 71 218 2.6 3.5 0.00 0.00 0.00 20 1020.9
20260905235611 73 177 2.6 9.6 0.00 0.00 0.00 20 1020.8